Terug naar catalogus

STARLINK-31710

ActiefCommunicatieVLEO
NORAD 59378·PAYLOAD·🇺🇸 United States

Gelanceerd Apr 2, 2024 vanaf Vandenberg Space Force Base

Loading…

Volgende Passages (komende 24 uur)

TLE

VersSource: CelesTrak SupGP

Epoch: Sep 14, 2026, 22:14 UTC

1 59378C 24062E   26257.92687500  .00013711  00000+0  40516-3 0  2573
2 59378  53.1576  93.5285 0001182  83.1040 105.1093 15.34378627    17

Volg STARLINK-31710 in realtime met AllMySat

Download on the App Store